FW8640 Weather Reports


Display with metric or nautical units.
time (UTC)temp
F
wind
direction
speed
MPH
gust
MPH
rain 1hr
in
rain 24hr
in
rain mn
in
humidity
%
barometer
mb
20260508002018 61 0.0 0.0 0.00 0.00 0.00 80 1017.8
20260508001017 61 0.0 0.0 0.00 0.00 0.00 80 1017.8
20260508000041 61 0.0 0.0 0.00 0.00 0.00 79 1017.9
20260507235018 61 0.0 0.0 0.00 0.00 0.00 79 1017.9
20260507234018 61 0.0 0.0 0.00 0.00 0.00 79 1017.9
20260507233017 61 0.0 0.0 0.00 0.00 0.00 79 1017.9
20260507232040 62 0.0 0.0 0.00 0.00 0.00 79 1018.0
20260507231019 62 0.0 0.0 0.00 0.00 0.00 79 1018.2
20260507230017 62 0.0 0.0 0.00 0.00 0.00 78 1018.3
20260507225017 63 0.0 0.0 0.00 0.00 0.00 78 1018.3
20260507224017 63 0.0 0.0 0.00 0.00 0.00 78 1018.5
20260507223017 63 0.0 0.0 0.00 0.00 0.00 78 1018.7
20260507222017 63 0.0 0.0 0.00 0.00 0.00 78 1018.7
20260507221019 63 0.0 0.0 0.00 0.00 0.00 78 1018.5
20260507220017 63 0.0 0.0 0.00 0.00 0.00 78 1018.5
20260507215017 63 0.0 0.0 0.00 0.00 0.00 78 1018.6
20260507214019 63 0.0 0.0 0.00 0.00 0.00 77 1018.5
20260507213017 63 0.0 0.0 0.00 0.00 0.00 77 1018.6
20260507212018 63 0.0 0.0 0.00 0.00 0.00 77 1018.5
20260507211019 63 0.0 0.0 0.00 0.00 0.00 76 1018.5
20260507210018 63 0.0 0.0 0.00 0.00 0.00 76 1018.5
20260507205018 63 0.0 0.0 0.00 0.00 0.00 76 1018.5
20260507204020 63 0.0 0.0 0.00 0.00 0.00 75 1018.6
20260507203020 63 0.0 0.0 0.00 0.00 0.00 75 1018.5
20260507202020 64 0.0 0.0 0.00 0.00 0.00 75 1018.4
20260507201018 64 0.0 0.0 0.00 0.00 0.00 74 1018.4
20260507200018 64 0.0 0.0 0.00 0.00 0.00 74 1018.4
20260507195020 64 0.0 0.0 0.00 0.00 0.00 74 1018.5
20260507194020 65 0.0 0.0 0.00 0.00 0.00 74 1018.6
20260507193020 65 0.0 0.0 0.00 0.00 0.00 73 1018.5
20260507192018 65 0.0 0.0 0.00 0.00 0.00 73 1018.5
20260507191018 65 0.0 0.0 0.00 0.00 0.00 72 1018.6
20260507190018 66 0.0 0.0 0.00 0.00 0.00 72 1018.5
20260507185018 66 0.0 0.0 0.00 0.00 0.00 72 1018.5
20260507184018 66 0.0 0.0 0.00 0.00 0.00 71 1018.4
20260507183018 67 0.0 0.0 0.00 0.00 0.00 70 1018.5
20260507182018 67 0.0 0.0 0.00 0.00 0.00 70 1018.4
20260507181020 67 0.0 0.0 0.00 0.00 0.00 69 1018.3
20260507180018 68 0.0 0.0 0.00 0.00 0.00 68 1018.1
20260507175041 68 0.0 0.0 0.00 0.00 0.00 67 1018.3
20260507174021 68 0.0 1.0 0.00 0.00 0.00 68 1018.3
20260507173018 68 0.0 0.0 0.00 0.00 0.00 67 1017.7
20260507172041 68 0.0 0.0 0.00 0.00 0.00 67 1017.5
20260507171017 68 0.0 0.0 0.00 0.00 0.00 66 1017.8
20260507170039 68 0.0 0.0 0.00 0.00 0.00 65 1018.1
20260507165041 69 0.0 0.0 0.00 0.00 0.00 66 1018.3
20260507164018 69 0.0 0.0 0.00 0.00 0.00 65 1018.4
20260507163018 69 0.0 0.0 0.00 0.00 0.00 65 1018.3
20260507162018 69 0.0 1.0 0.00 0.00 0.00 64 1018.4
20260507161102 69 225 1.0 5.0 0.00 0.00 0.00 63 1018.5
20260507160019 69 0.0 0.0 0.00 0.00 0.00 63 1018.2
20260507155017 69 0.0 0.0 0.00 0.00 0.00 64 1018.2
20260507154104 69 0.0 0.0 0.00 0.00 0.00 66 1018.3
20260507153018 69 0.0 0.0 0.00 0.00 0.00 67 1018.5
20260507152019 69 0.0 1.0 0.00 0.00 0.00 66 1018.6
20260507151019 70 0.0 3.0 0.00 0.00 0.00 64 1018.5
20260507150019 71 0.0 3.0 0.00 0.00 0.00 60 1018.4
20260507145102 71 0.0 0.0 0.00 0.00 0.00 59 1018.4
20260507144019 71 0.0 3.0 0.00 0.00 0.00 60 1018.6
20260507143018 71 0.0 2.0 0.00 0.00 0.00 59 1018.5
20260507142019 72 225 2.0 5.0 0.00 0.00 0.00 58 1018.5
20260507141018 72 0.0 4.0 0.00 0.00 0.00 58 1018.3
20260507140019 72 225 1.0 4.0 0.00 0.00 0.00 59 1018.2
20260507135018 71 0.0 0.0 0.00 0.00 0.00 61 1018.2
20260507134019 71 0.0 0.0 0.00 0.00 0.00 64 1018.2
20260507133017 70 0.0 0.0 0.00 0.00 0.00 67 1018.3
20260507132017 69 0.0 0.0 0.00 0.00 0.00 67 1018.4
20260507131020 70 225 1.0 3.0 0.00 0.00 0.00 68 1018.6
20260507130017 70 225 1.0 5.0 0.00 0.00 0.00 67 1018.6
20260507125019 70 0.0 3.0 0.00 0.00 0.00 64 1018.6
20260507124017 70 0.0 0.0 0.00 0.00 0.00 66 1018.5
20260507123017 69 0.0 0.0 0.00 0.00 0.00 67 1019.0
20260507122040 68 0.0 2.0 0.00 0.00 0.00 69 1019.5
20260507121019 68 0.0 0.0 0.00 0.00 0.00 70 1019.5
20260507120017 68 0.0 2.0 0.00 0.00 0.00 70 1019.6
20260507115017 68 0.0 2.0 0.00 0.00 0.00 70 1019.8
20260507114019 68 0.0 2.0 0.00 0.00 0.00 71 1020.0
20260507113018 69 0.0 0.0 0.00 0.00 0.00 72 1020.1
20260507112042 69 0.0 0.0 0.00 0.00 0.00 73 1020.2
20260507111020 69 0.0 0.0 0.00 0.00 0.00 72 1020.3
20260507110019 69 0.0 0.0 0.00 0.00 0.00 70 1020.1
20260507105044 69 0.0 0.0 0.00 0.00 0.00 70 1020.1
20260507104019 68 0.0 0.0 0.00 0.00 0.00 69 1020.1
20260507103020 68 0.0 0.0 0.00 0.00 0.00 68 1020.3
20260507102019 68 0.0 0.0 0.00 0.00 0.00 67 1020.3
20260507101019 69 0.0 1.0 0.00 0.00 0.00 67 1020.3
20260507100019 69 0.0 2.0 0.00 0.00 0.00 68 1020.1
20260507095020 69 225 1.0 4.0 0.00 0.00 0.00 67 1020.1
20260507094040 69 225 1.0 5.0 0.00 0.00 0.00 64 1020.0
20260507093019 69 0.0 0.0 0.00 0.00 0.00 63 1019.8
20260507092021 69 0.0 0.0 0.00 0.00 0.00 65 1019.5
20260507091021 68 0.0 0.0 0.00 0.00 0.00 66 1019.3
20260507090044 68 0.0 0.0 0.00 0.00 0.00 67 1019.3
20260507085021 68 0.0 0.0 0.00 0.00 0.00 68 1019.3
20260507084019 68 0.0 0.0 0.00 0.00 0.00 69 1019.1
20260507083019 67 0.0 0.0 0.00 0.00 0.00 70 1019.1
20260507082018 67 0.0 0.0 0.00 0.00 0.00 70 1019.0
20260507081019 67 0.0 0.0 0.00 0.00 0.00 70 1018.9
20260507080042 68 0.0 0.0 0.00 0.00 0.00 69 1018.8
20260507075019 68 0.0 0.0 0.00 0.00 0.00 69 1018.5
20260507074042 68 0.0 0.0 0.00 0.00 0.00 69 1018.4
20260507073042 68 0.0 0.0 0.00 0.00 0.00 70 1018.2
20260507072019 68 0.0 0.0 0.00 0.00 0.00 70 1018.2
20260507071020 67 0.0 0.0 0.00 0.00 0.00 71 1018.2
20260507070019 67 0.0 0.0 0.00 0.00 0.00 73 1018.1
20260507065022 66 0.0 0.0 0.00 0.00 0.00 73 1018.3
20260507064040 66 0.0 0.0 0.00 0.00 0.00 74 1018.4
20260507063018 65 0.0 0.0 0.00 0.00 0.00 74 1018.3
20260507062018 65 0.0 0.0 0.00 0.00 0.00 75 1018.4
20260507061019 65 0.0 0.0 0.00 0.00 0.00 75 1018.2
20260507060018 66 0.0 4.0 0.00 0.00 0.00 74 1018.1
20260507055021 66 0.0 0.0 0.00 0.00 0.00 75 1017.9
20260507054018 65 0.0 0.0 0.00 0.00 0.00 75 1017.9
20260507053019 65 0.0 0.0 0.00 0.00 0.00 77 1017.9
20260507052018 65 0.0 0.0 0.00 0.00 0.00 79 1017.7
20260507051042 64 0.0 0.0 0.00 0.00 0.00 80 1017.7
20260507050021 63 0.0 0.0 0.00 0.00 0.00 81 1017.7
20260507045019 62 0.0 0.0 0.00 0.00 0.00 82 1017.6
20260507044022 61 0.0 0.0 0.00 0.00 0.00 81 1017.6
20260507043019 60 0.0 0.0 0.00 0.00 0.00 81 1017.6
20260507042020 60 0.0 0.0 0.00 0.00 0.00 81 1017.6
20260507041041 59 0.0 0.0 0.00 0.00 0.00 81 1017.5
20260507040018 59 0.0 0.0 0.00 0.00 0.00 80 1017.5
20260507035103 59 0.0 0.0 0.00 0.00 0.00 79 1017.4
20260507034018 59 0.0 0.0 0.00 0.00 0.00 79 1017.3
20260507033020 59 0.0 0.0 0.00 0.00 0.00 79 1017.2
20260507032019 59 0.0 0.0 0.00 0.00 0.00 79 1017.2
20260507031040 59 0.0 0.0 0.00 0.00 0.00 79 1017.2
20260507030019 59 0.0 0.0 0.00 0.00 0.00 78 1017.1
20260507025018 59 0.0 0.0 0.00 0.00 0.00 79 1017.0
20260507024019 59 0.0 0.0 0.00 0.00 0.00 79 1016.9
20260507023020 59 0.0 0.0 0.00 0.00 0.00 79 1016.7
20260507022020 59 0.0 0.0 0.00 0.00 0.00 79 1016.5
20260507021019 60 0.0 0.0 0.00 0.00 0.00 79 1016.7
20260507020020 60 0.0 0.0 0.00 0.00 0.00 79 1016.7
20260507015020 60 0.0 0.0 0.00 0.00 0.00 78 1016.7
20260507014018 60 0.0 0.0 0.00 0.00 0.00 78 1016.6
20260507013018 60 0.0 0.0 0.00 0.00 0.00 77 1016.7
20260507012018 61 0.0 0.0 0.00 0.00 0.00 76 1016.7
20260507011021 61 0.0 0.0 0.00 0.00 0.00 76 1016.7
20260507010018 62 0.0 0.0 0.00 0.00 0.00 75 1016.6
20260507005020 63 0.0 0.0 0.00 0.00 0.00 75 1016.5
20260507004018 63 0.0 0.0 0.00 0.00 0.00 76 1016.3
20260507003018 63 0.0 4.0 0.00 0.00 0.00 77 1016.3